Location: Unspecified
(47.4992°N, 121.7766°W)
Time: 02:12:35
(UTC-08:00)

Cosmos 2058 - Pass Details

Date: 27 January 2021
Orbit: 561 x 584 km, 82.5° (Epoch: 24 February)

Event Time Altitude Azimuth Distance (km) Brightness Sun altitude
Rises 05:33:47 0° 6° (N) 2,778 6.4 -21.1°
Reaches altitude 10° 05:36:47 10° 29° (NNE) 1,871 5.8 -20.6°
Maximum altitude 05:39:15 15° 66° (ENE) 1,547 5.9 -20.2°
Drops below altitude 10° 05:41:42 10° 103° (ESE) 1,856 6.7 -19.8°
Sets 05:44:40 0° 127° (SE) 2,744 7.4 -19.3°
